Terug naar catalogus

STARLINK-37711

ActiefCommunicatieVLEO
NORAD 100002·PAYLOAD·🇺🇸 United States

Gelanceerd Jul 14, 2026 vanaf Vandenberg Space Force Base

Loading…

Volgende Passages (komende 24 uur)

TLE

VersSource: Space-Track

Epoch: Sep 14, 2026, 21:51 UTC

1 A0002U 26160B   26257.91060250  .00244831  00000-0  14218-2 0  9992
2 A0002  70.0023 210.6599 0004533 277.3415  82.7270 15.77656425 11110

Volg STARLINK-37711 in realtime met AllMySat

Download on the App Store